User: anonymous   Login
Location: eljas
(40.1958°N, 6.8661°W)
Time: 22:17:32
(UTC+02:00)
Language:

Okean O Rocket - Orbit

View from above orbital plane
View from above orbital plane
View from above satellite
View from above satellite

Ground track
Ground track

The orbit data is extracted from the following two-line orbital elements,

1 25861U 99039B   15212.97175602  .00000101  00000-0  21218-4 0  9990
2 25861 098.0048 172.9272 0016758 130.0121 274.2935 14.78167197864391
Epoch (UTC): 31 July 2015 23:19:19
Eccentricity: 0.0016758
inclination: 98.0048°
perigee height: 623 km
apogee height: 647 km
right ascension of ascending node: 172.9272°
argument of perigee: 130.0121°
revolutions per day: 14.78167197
mean anomaly at epoch: 274.2935°
orbit number at epoch: 86439

The dashed part of the orbit path shows where the satellite is in the earth's shadow,  

DLR